CAPE
8 10 5 8 11 3 0 0 0 0 0 0 0 0 0 0 0 3 0 0 0 0 0 0 0 0 0 0 0 0 0 0 0 0 0 0 0 0 0 0 0 0 0 0
14 15 2 3 4 5 0 0 0 0 0 0 0 0 0 0 1 0 0 0 0 0 0 0 0 0 0 0 0 0 0 0 0 0 0 0 0 0 0 0 0 0 0 0
16 13 3 0 0 0 0 0 0 0 0 0 0 0 0 7 1 0 0 0 0 0 0 0 0 0 0 0 0 0 0 0 0 0 0 0 0 0 0 0 0 0 0 0
9 8 2 0 0 0 0 1 1 1 0 0 0 1 0 5 7 0 0 0 0 0 0 0 0 0 0 0 1 1 0 0 0 0 0 0 0 0 0 0 0 0 0 0
7 1 2 0 2 0 0 0 1 1 0 0 0 0 0 1 1 0 0 0 0 0 0 0 0 0 0 0 0 0 0 0 0 0 0 0 0 0 0 0 0 0 0 0
10 4 2 5 11 0 0 1 0 1 0 0 0 0 0 0 0 1 0 1 0 0 0 0 0 0 0 0 0 0 0 0 0 0 0 0 0 0 0 0 0 0 0 0
5 8 4 8 17 3 0 0 2 0 0 0 0 0 0 0 0 0 0 0 0 0 0 0 0 0 0 0 0 0 0 0 0 0 0 0 0 0 0 0 0 0 0 0
8 5 2 8 8 6 0 0 1 1 0 0 0 0 0 0 0 0 0 0 0 0 0 0 0 0 0 0 0 0 0 0 0 0 0 0 0 0 0 0 0 0 0 0
9 8 7 7 7 5 0 0 0 2 0 0 0 0 0 0 0 0 0 0 0 0 0 0 0 0 0 1 1 7 7 3 0 0 0 0 0 0 0 0 0 0 0 0
8 5 8 7 5 4 1 0 0 1 2 0 0 0 0 6 1 0 0 0 0 0 0 0 0 0 0 0 0 0 1 3 0 0 0 0 0 0 0 0 0 0 0 0
10 9 7 7 4 8 11 0 0 0 1 0 0 0 2 6 4 0 0 0 0 0 0 0 0 0 0 0 0 0 0 0 1 1 0 0 0 0 0 0 0 0 0 0
14 5 9 10 8 5 12 0 0 0 1 0 0 0 0 1 8 4 0 3 1 2 3 0 1 0 0 0 0 0 0 0 0 0 0 0 0 0 0 0 0 0 0 0
15 5 11 10 7 6 8 2 0 1 1 1 0 0 0 0 0 0 3 0 4 2 4 2 0 0 0 0 0 0 0 0 0 0 0 0 0 0 0 0 0 0 0 0
2 7 11 13 8 3 12 10 3 0 1 0 3 3 10 10 10 10 1 3 0 0 2 6 4 4 0 0 0 0 0 0 0 0 0 0 0 0 0 0 0 0 0 0
7 5 10 4 6 6 21 4 0 0 0 0 0 0 0 0 0 0 0 0 0 0 8 10 2 6 2 0 0 0 0 0 0 0 2 1 0 0 0 0 0 0 0 0
9 8 12 13 11 27 7 0 1 0 0 1 0 0 4 0 0 0 0 0 0 6 14 14 7 5 1 1 3 0 0 0 0 0 0 0 0 0 0 0 0 0 0 0
10 5 6 10 29 26 1 1 1 2 0 1 0 0 7 0 1 2 3 5 3 10 4 7 11 1 12 2 1 0 0 0 0 0 0 0 0 0 0 0 0 0 0 0
1 1 14 28 27 28 0 0 0 0 0 1 2 0 0 0 2 4 4 5 0 3 2 5 3 1 3 2 0 0 0 0 0 0 0 0 0 0 0 0 0 0 0 0
0 4 24 3 0 0 0 4 0 0 0 1 3 0 0 0 4 5 1 4 2 1 2 2 2 1 1 0 0 0 0 0 0 0 0 0 0 0 0 0 0 0 0 0
0 0 3 1 1 0 0 0 1 1 0 0 2 1 0 0 15 2 6 2 0 0 0 1 0 0 0 0 0 0 0 0 0 0 0 0 0 0 0 0 0 0 0 0
0 0 0 0 0 1 1 4 1 1 0 1 2 12 2 4 8 1 0 0 0 0 0 0 0 0 0 0 0 0 0 0 0 0 0 0 0 0 0 0 0 0 0 0
0 0 0 1 0 1 0 0 2 0 0 4 15 3 1 0 2 0 0 0 0 0 1 0 0 0 0 0 0 0 0 0 0 0 0 0 0 0 0 0 0 0 0 0
0 1 1 0 0 0 0 0 1 0 0 0 0 0 0 1 0 0 0 0 0 1 0 0 0 0 0 0 0 0 0 0 0 0 0 0 0 0 0 0 0 0 0 0
0 0 0 0 0 0 0 0 0 0 0 0 0 0 0 0 0 0 3 0 0 0 0 0 0 0 0 0 0 0 1 1 0 0 0 0 0 0 0 0 0 0 0 0
0 0 0 0 0 0 0 0 0 1 0 0 0 0 0 0 0 0 0 0 0 0 0 0 0 0 0 0 0 0 1 0 0 0 0 0 0 0 0 0 0 0 0 0
0 0 0 0 0 0 0 0 0 0 0 0 0 0 0 0 0 0 1 0 0 0 0 0 0 0 0 0 0 1 1 0 0 0 0 0 0 0 0 0 0 0 0 0
0 0 0 0 0 0 0 0 0 0 0 0 0 0 3 0 0 0 0 0 0 0 0 0 0 0 0 0 0 0 0 0 0 0 0 0 0 0 0 0 0 0 0 0
CIN
-0 -0 -0 -0 -0 -0 0 0 0 -13 -2 0 0 0 0 0 0 -0 -10 0 0 0 0 0 0 0 0 0 0 0 0 0 0 -4 0 0 0 0 0 0 0 0 0 0
0 -0 -0 -0 -0 -0 0 -0 -0 0 0 0 0 0 0 0 -1 -3 -1 0 0 0 0 0 0 0 0 0 0 0 0 0 0 0 0 0 0 0 0 0 0 0 0 0
-0 -0 -0 -0 -0 0 0 0 0 0 0 0 0 0 0 -3 -3 0 0 0 0 0 0 0 0 0 -11 0 -3 0 0 0 0 0 0 0 0 0 0 -1 0 0 0 0
-0 -0 -0 0 0 0 0 -0 0 0 0 0 0 0 0 -0 -1 0 0 0 0 0 -6 0 0 0 -7 0 -10 -20 0 0 0 0 0 0 -0 0 0 0 0 0 0 0
-0 0 -0 -0 -0 0 0 -0 0 0 0 -0 0 0 0 0 -1 0 -3 0 0 0 0 0 0 0 0 0 0 0 0 0 0 0 0 0 0 0 0 0 0 0 0 0
-0 -0 -0 -0 -0 0 0 -2 -2 0 0 0 0 0 0 0 0 -6 -1 -22 -20 0 0 0 0 0 0 0 0 0 0 0 0 0 0 0 0 0 0 0 0 0 0 0
-0 -0 -0 -0 -0 -1 0 0 0 0 0 0 0 0 0 -1 0 0 -7 0 -6 0 0 0 0 0 0 0 0 0 0 0 0 0 0 0 0 0 0 0 0 0 0 -3
-0 -0 -0 -0 -0 -0 0 0 0 -0 0 0 0 0 0 0 0 0 0 0 0 0 0 0 0 -1 -2 -1 0 0 0 0 0 0 0 0 0 0 0 0 0 0 0 -1
-0 0 -0 -0 -0 0 0 0 0 0 0 0 0 0 0 -1 0 0 0 0 0 0 0 0 0 0 0 0 0 -2 -1 -3 -0 -0 0 0 0 0 0 0 0 0 0 0
-0 -0 0 -0 -0 -0 -1 0 0 0 0 0 0 0 -9 -17 -12 0 0 0 0 0 0 0 0 0 0 0 0 0 -0 -0 -0 0 -0 0 0 0 0 0 0 0 0 0
-0 -0 -0 0 -1 -1 -1 0 0 0 0 0 0 0 -13 -17 -11 -1 0 0 0 0 0 -1 -0 0 0 0 -6 0 0 0 0 -1 -1 0 0 0 0 0 0 0 0 0
-0 -0 -0 -0 -0 -0 -0 0 0 0 0 0 0 0 0 -2 -27 -19 -37 -24 -11 -10 -13 -13 -15 -2 0 0 -2 0 0 0 0 0 0 0 0 0 0 0 0 0 0 0
-0 -0 -0 -0 -0 -0 -0 -1 -0 0 0 0 0 0 0 -7 0 0 -4 -3 -48 -33 -48 -22 -6 -1 0 0 0 0 0 0 0 0 0 0 0 0 0 0 0 0 0 0
-1 -1 -0 -0 -0 -0 -2 -1 -1 -0 0 0 -8 -6 -20 -49 -42 -35 -40 -29 0 0 -44 -14 -13 -9 0 0 0 0 -2 0 0 0 0 0 0 0 0 0 0 0 0 0
-0 -0 -0 -0 -0 -1 -2 -10 0 0 0 0 0 0 0 0 0 -10 0 0 0 0 -8 -7 -5 -3 -5 0 0 0 0 0 0 0 -8 -14 -9 0 0 0 0 0 0 0
0 -0 -0 -0 -2 -2 -2 0 0 0 0 0 0 0 -15 0 0 0 0 0 0 -6 -1 -1 -1 -17 -1 -1 -1 0 0 0 0 0 0 0 0 0 0 0 0 0 0 0
-0 -0 -0 -6 -3 -0 -0 0 0 -0 -0 0 0 -5 -7 -2 -10 -18 -14 -17 -5 -1 -5 -3 -0 -12 -1 -3 0 0 0 0 0 0 0 0 0 0 0 0 0 0 0 0
-0 -0 -16 -6 -4 -2 -0 0 0 0 0 0 -1 -1 0 0 -1 -3 -5 -1 -0 -0 -2 -0 -3 -0 -0 -1 0 0 0 0 0 0 0 0 0 0 0 0 0 0 0 0
0 -15 -20 -1 0 0 0 0 0 0 0 0 -0 0 0 0 -3 -1 -3 -1 0 0 0 -0 -1 0 -0 0 0 -0 0 0 0 0 0 0 0 0 0 0 0 0 0 0
0 0 -11 0 -0 0 0 0 0 0 0 0 -2 -2 0 -0 -3 -0 0 0 0 0 0 -0 0 0 0 0 0 0 0 0 0 0 0 0 0 0 0 0 0 0 0 0
0 0 0 0 0 0 0 -0 0 0 0 0 -6 -8 -3 -13 -1 -0 0 -0 0 0 0 0 0 0 0 0 0 0 0 0 0 0 0 0 0 0 0 0 0 0 0 0
0 0 0 0 -0 -0 0 0 0 -0 -0 -5 -1 -3 -4 -1 -7 -1 -1 0 0 0 0 0 0 0 0 0 0 0 0 0 0 0 0 0 0 0 0 0 0 0 0 0
0 0 0 0 0 0 0 0 -0 0 0 0 0 0 0 -1 0 -0 0 0 0 0 0 0 0 0 0 0 0 0 0 0 0 0 0 0 0 0 0 0 0 0 0 0
-0 0 0 -0 0 0 0 0 0 0 0 0 0 0 0 -14 -0 0 -1 0 0 0 0 0 0 0 0 0 0 0 0 0 0 0 0 0 0 0 0 0 0 0 0 0
0 0 0 -0 0 0 0 0 0 0 0 0 0 0 0 0 -5 0 0 -0 0 0 0 0 0 0 0 0 0 0 0 0 0 0 0 0 0 0 0 0 0 0 0 0
0 -0 -0 0 0 0 0 0 0 0 0 0 0 0 0 0 -1 0 -0 -0 0 0 0 0 0 0 0 0 0 0 0 0 0 0 0 0 0 0 0 0 0 0 0 0
0 0 0 0 0 0 0 0 0 0 0 0 0 0 -1 0 -3 -0 0 -0 0 0 0 0 0 0 0 0 0 0 0 0 0 0 0 0 0 0 0 0 0 0 0 0
Wind_Speed
33 32 35 34 20 15 7 11 15 17 11 12 11 9 8 11 15 19 19 15 18 20 16 22 22 30 21 33 24 24 19 17 18 19 20 21 24 20 17 18 20 21 24 26
33 31 33 30 17 10 7 11 14 13 10 12 8 8 8 11 17 19 18 17 20 18 17 20 22 25 24 27 28 23 19 18 18 20 22 21 23 23 18 18 19 26 25 23
32 29 28 26 18 10 10 11 9 8 9 12 10 5 10 10 15 16 15 18 13 12 18 16 18 17 16 21 23 16 17 18 20 24 19 15 19 16 5 7 21 21 20 33
29 25 24 18 19 12 10 9 9 8 7 6 3 6 8 4 7 5 5 8 12 14 17 13 17 13 14 13 15 16 17 22 22 25 26 23 21 17 1 11 15 23 29 33
29 27 22 6 19 12 6 10 11 9 8 8 7 7 4 4 5 8 6 8 8 8 16 20 18 12 17 17 15 15 16 19 20 24 25 28 31 28 28 15 25 28 27 31
27 26 23 3 15 14 11 12 11 12 9 7 6 8 9 6 8 3 5 4 2 3 7 9 10 13 12 13 12 15 15 17 20 22 19 22 26 23 22 25 17 6 20 22
26 24 23 7 18 14 13 14 14 13 10 8 8 10 10 8 6 8 9 7 9 12 12 6 6 6 9 10 13 12 15 15 18 21 21 22 20 21 5 11 13 15 14 17
25 22 22 7 15 17 15 14 15 15 15 14 11 9 9 8 7 6 8 8 13 14 11 12 13 15 16 17 14 12 14 16 20 22 23 24 18 15 16 17 22 11 9 13
22 23 19 21 20 19 18 15 16 18 18 16 15 14 13 11 10 11 11 12 12 15 14 14 17 18 16 17 16 17 17 17 19 21 21 22 18 15 17 17 19 10 9 12
20 22 21 9 22 21 20 17 17 17 18 20 18 17 16 15 12 13 13 13 14 14 14 15 16 18 16 18 18 19 22 23 27 25 23 23 22 18 14 18 21 13 8 3
17 21 22 19 24 22 20 21 16 17 20 24 23 22 19 17 13 12 12 13 14 14 15 16 17 18 18 19 19 19 19 20 20 21 23 23 17 13 18 21 24 24 22 17
18 20 22 20 19 23 22 21 19 18 20 22 21 27 27 20 15 13 12 13 13 12 15 16 17 18 18 19 20 19 22 21 19 21 21 21 18 21 22 24 23 23 19 14
18 19 22 21 19 18 24 24 23 20 21 21 20 23 21 18 16 16 14 13 13 14 15 14 17 20 19 21 22 22 24 23 24 20 21 24 22 23 11 16 20 21 16 12
20 18 22 21 20 15 26 26 20 20 19 20 19 16 17 15 17 19 18 15 11 14 16 18 18 22 19 22 24 25 25 20 25 28 29 27 25 20 15 16 18 20 17 12
20 21 22 21 18 12 25 27 26 23 18 18 20 22 18 16 16 18 18 16 13 14 20 21 22 22 25 26 27 31 30 33 32 29 24 24 25 19 16 14 17 19 16 14
22 24 24 19 14 9 21 22 19 20 15 17 20 16 15 16 17 18 18 16 15 14 21 22 23 24 24 24 24 25 25 25 24 26 29 29 24 22 17 13 16 18 14 11
24 24 21 16 7 4 25 23 15 11 13 17 18 17 16 17 18 18 18 19 20 18 20 24 24 25 23 25 29 28 30 28 31 29 25 26 24 23 11 10 15 17 15 11
28 22 20 15 9 22 27 25 26 20 20 19 18 16 16 13 17 18 16 20 18 18 20 20 21 20 24 28 29 29 28 27 26 25 25 27 24 18 15 11 12 13 11 11
26 19 16 15 8 22 20 17 16 20 22 20 20 16 17 14 18 18 19 18 21 20 19 19 17 20 24 23 25 26 26 26 28 26 23 22 23 18 13 8 9 8 8 9
20 16 15 17 17 17 18 17 18 21 23 23 22 11 21 18 20 20 20 19 19 19 15 15 18 22 16 23 25 28 30 31 31 32 31 27 25 20 12 5 5 5 6 6
17 14 12 18 18 17 18 21 21 21 21 21 21 5 13 8 23 22 17 19 17 18 15 17 18 18 19 23 25 27 28 29 31 33 34 31 26 22 10 4 4 5 5 4
16 13 14 16 17 18 21 23 21 21 21 18 15 13 11 17 18 18 18 19 17 17 15 17 18 16 23 25 25 26 26 26 26 25 26 26 24 19 7 3 4 5 5 4
14 12 9 6 5 10 20 19 23 21 18 16 16 15 14 15 17 18 18 19 19 17 17 17 16 20 23 24 24 25 23 21 20 20 20 18 15 11 7 5 4 4 4 3
14 10 10 5 4 7 25 24 22 18 17 17 16 17 15 15 17 17 19 19 19 18 17 16 17 22 23 22 22 21 21 20 19 19 18 14 10 9 9 7 5 3 5 5
15 11 14 13 17 19 21 20 19 18 18 17 17 18 18 18 20 19 19 19 18 17 16 15 20 20 19 19 20 20 20 20 18 17 14 13 11 10 9 8 7 5 5 4
16 16 17 18 18 18 18 20 22 20 20 19 19 20 20 21 20 20 21 21 20 17 15 17 18 18 18 17 18 17 15 16 17 18 17 16 14 12 9 6 4 3 3 4
17 18 16 19 20 19 17 17 19 21 21 21 20 21 20 18 20 21 19 21 17 14 16 17 17 19 20 21 20 19 18 18 19 20 20 19 17 12 9 7 6 5 4 4
Wind_Direction
18 21 20 24 23 340 142 147 151 154 156 164 168 205 235 235 206 200 199 200 193 205 213 212 218 211 229 213 222 222 235 239 241 244 246 246 249 264 273 287 292 293 294 297
20 24 25 31 334 326 158 155 160 172 152 150 164 183 226 218 199 202 204 208 213 210 216 215 218 219 229 215 220 223 233 242 243 245 251 261 262 264 280 291 302 285 290 303
21 26 30 37 325 315 164 181 191 191 169 164 156 191 159 192 193 199 206 204 205 211 220 226 221 224 235 218 225 239 247 250 245 239 261 283 276 287 275 293 292 303 304 275
22 30 35 41 321 312 207 206 204 227 207 190 193 157 150 131 178 192 213 194 209 221 225 228 224 229 223 237 235 243 253 246 260 255 254 272 283 296 339 185 195 296 294 276
25 31 41 22 322 296 256 218 202 241 228 242 202 184 170 143 153 174 193 196 228 246 219 223 219 227 228 234 240 249 262 262 274 259 262 259 242 222 217 191 213 229 239 254
27 33 43 49 313 316 248 220 228 200 250 277 260 216 198 210 213 252 221 212 7 300 257 231 238 244 237 256 254 257 272 279 271 261 281 284 270 228 192 222 198 230 236 245
27 33 37 84 310 306 262 254 243 233 241 262 271 239 240 254 252 225 234 260 249 232 229 269 302 305 278 281 273 277 282 282 279 260 280 275 280 270 315 141 191 198 216 240
25 36 36 99 285 298 273 260 252 254 255 248 270 281 284 328 327 300 320 284 211 244 265 257 259 257 261 265 277 286 286 284 274 273 261 261 268 286 305 325 270 119 188 228
27 29 38 300 304 291 286 277 279 256 260 264 259 252 245 253 264 250 264 226 242 200 256 269 262 258 267 269 276 273 279 290 280 269 262 240 266 295 322 352 262 136 172 224
27 26 27 52 300 297 289 282 295 276 273 255 261 256 258 260 294 314 322 336 334 333 283 276 268 260 272 264 265 262 255 257 236 249 249 252 239 267 355 279 286 10 35 107
25 19 18 21 309 294 285 273 292 286 281 255 246 248 258 269 303 325 357 344 331 325 292 282 278 271 272 270 269 265 263 257 271 257 247 243 271 314 277 298 293 284 324 354
15 13 9 13 4 294 286 277 282 294 286 277 268 248 241 268 288 318 344 346 354 349 308 296 289 280 276 275 266 271 257 265 268 250 249 253 267 267 270 283 283 332 354 15
6 8 1 2 359 333 279 265 266 272 274 269 267 252 265 273 287 293 317 334 332 317 306 319 298 280 284 273 270 271 264 264 254 268 257 246 254 245 209 6 359 354 10 30
357 3 356 354 349 347 272 259 268 267 268 267 261 275 276 284 286 281 292 312 349 319 309 301 298 283 289 278 271 268 265 278 255 250 247 250 267 287 1 12 3 350 358 24
353 355 351 348 346 347 276 255 254 257 266 272 263 264 284 292 294 289 294 300 318 325 298 292 291 287 284 277 278 269 262 251 245 250 262 264 264 315 359 22 6 358 14 31
351 350 348 347 348 356 261 243 256 252 263 283 266 296 300 297 296 291 294 304 310 321 300 290 285 287 280 279 281 276 267 261 262 266 264 267 284 305 339 16 11 350 20 43
352 351 352 353 8 320 222 225 248 250 258 267 273 282 294 298 295 298 304 301 303 309 298 286 285 282 275 276 274 271 261 265 263 269 273 273 285 299 349 5 355 348 358 25
350 359 4 19 98 221 220 229 225 235 233 245 262 289 308 328 304 299 306 300 304 298 292 294 288 286 273 274 273 264 266 269 274 277 274 276 289 311 328 349 350 346 354 2
355 14 33 67 259 208 224 236 241 235 226 237 239 288 301 329 293 293 295 300 285 291 298 297 301 283 270 276 280 271 270 271 271 274 283 288 287 310 333 2 350 344 359 351
5 30 51 86 219 233 232 230 233 237 235 226 218 118 271 295 283 277 288 282 287 293 316 317 291 278 292 287 285 277 274 273 273 267 264 272 282 308 339 16 32 22 14 8
8 17 54 236 241 233 238 233 237 240 250 257 274 43 203 76 271 269 304 289 303 300 314 294 292 282 285 290 289 288 281 277 269 263 258 269 284 301 335 23 47 25 24 48
352 351 277 257 248 250 244 236 249 255 264 288 314 338 6 306 297 288 292 287 301 301 320 297 290 295 291 296 296 295 290 287 279 277 273 275 284 301 335 26 17 8 9 30
335 352 351 32 80 134 254 253 248 259 280 296 308 320 342 332 293 287 288 278 281 326 308 289 307 295 294 289 290 296 292 295 295 287 287 292 303 321 353 21 357 352 40 22
324 348 313 25 45 135 250 256 262 279 283 293 306 306 314 315 289 293 285 287 287 293 291 299 302 297 299 301 296 296 289 293 294 293 293 299 319 338 1 3 1 50 84 91
304 333 302 307 289 273 262 268 273 278 285 294 300 298 296 291 282 293 291 287 286 295 301 306 298 299 298 299 304 298 291 290 292 297 299 305 324 333 338 2 50 58 63 77
299 297 300 290 289 284 282 276 270 281 281 285 287 284 286 279 282 285 281 283 287 300 303 303 306 315 314 307 305 298 288 279 288 292 297 301 312 323 338 346 356 25 56 79
292 288 306 286 281 288 295 291 284 279 277 274 277 278 280 290 284 284 290 287 298 308 305 306 310 316 316 314 310 304 295 294 299 304 298 299 308 323 330 328 318 309 312 292